Simultaneous Nadir Overpasses (SNOs) Predictions

Prediction of SNOs between GOES-16 and AQUA Satellite Orbit:

Table of predicted SNOs for the next 14.0 days since TLE Epoch: 8/10/2024
Index Date Time (GOES-16) GOES-16 Lat,Lon AQUA Lat,Lon Distance(km) Time Diff (sec)
1 08/10/2024 19:09:01 -0.05, -75.20 0.36, -73.34 212.27 80
2 08/11/2024 07:29:02 0.05, -75.21 0.67, -78.18 337.89 80
3 08/13/2024 07:09:21 0.05, -75.22 -0.20, -74.02 136.21 80
4 08/13/2024 19:29:30 -0.04, -75.22 -0.83, -78.90 418.47 80
5 08/15/2024 19:15:08 -0.04, -75.23 0.09, -74.74 56.56 80
6 08/16/2024 07:35:08 0.03, -75.24 0.95, -79.57 493.15 80
7 08/18/2024 07:15:24 0.01, -75.25 0.04, -75.40 17.27 80
8 08/20/2024 07:00:59 0.00, -75.27 -0.89, -71.23 460.20 80
9 08/20/2024 19:18:26 -0.00, -75.27 -0.18, -76.10 93.44 80
10 08/22/2024 19:03:59 -0.01, -75.30 0.75, -71.91 386.13 80
11 08/23/2024 07:23:58 0.01, -75.32 0.29, -76.75 162.37 80
